Flag for Macedonia, Republic of Weather past 2 weeks in Ohrid, Macedonia, Republic of

Now
50 °F

Light rain. Mostly cloudy.


Feels Like: 49 °F
Forecast: 35 / 53 °F
Wind: 3 mph from Southwest

Location: Ohrid Airport


UV Index: 0 (Low)

Visibility: N/A


Pressure: 29.89 "Hg

Humidity: 82%

Dew point: 45 °F

Location of OhridLocation

Historic Weather in Ohrid

°F

Ohrid temperature yesterday

Maximum temperature yesterday: 50 °F (at 2:30 PM)
Minimum temperature yesterday: 39 °F (at 7:00 AM)
Average temperature yesterday: 46 °F

Past Weeks' High & Low Weather Summary

 TemperatureHumidityPressure
High66 °F (Apr 7, 1:00 PM)93% (Apr 13, 6:30 AM)30.12 "Hg (Apr 13, 6:30 AM)
Low32 °F (Apr 11, 7:30 AM)31% (Apr 13, 2:30 PM)29.65 "Hg (Apr 18, 8:00 AM)
Average50 °F68%29.90 "Hg
* Reported Apr 5 8:00 AM — Apr 20 8:00 AM, Ohrid, Weather by CustomWeather, © 2014

Note: Actual official high and low records may vary slightly from our data, if they occured in-between our weather recording intervals... More about our weather records

Advertising

Historic Weather Conditions — Data for Previous 24 hours

 ConditionsComfort  
Time TempWeatherWind HumidityBarometerVisibility
8:00 AM
Apr 20
48 °FLight rain. Mostly cloudy.8 mph87%29.89 "HgN/A
7:30 AM48 °FLight rain. Mostly cloudy.8 mph82%29.89 "HgN/A
7:00 AM46 °FLight rain. Overcast.8 mph87%29.89 "HgN/A
6:30 AM46 °FLight rain. Overcast.13 mph87%29.86 "HgN/A
6:00 AM48 °FLight rain. Overcast.14 mph82%29.86 "HgN/A
5:30 AM48 °FLight rain. Overcast.14 mph82%29.86 "HgN/A
5:00 AM46 °FPassing clouds.No wind82%29.86 "HgN/A
4:30 AM48 °FPassing clouds.6 mph82%29.86 "HgN/A
4:00 AM48 °FPassing clouds.3 mph82%29.86 "HgN/A
3:30 AM48 °FPassing clouds.6 mph82%29.86 "HgN/A
3:00 AM48 °FPassing clouds.7 mph82%29.86 "HgN/A
2:30 AM48 °FPassing clouds.8 mph82%29.86 "HgN/A
2:00 AM48 °FPassing clouds.9 mph82%29.86 "HgN/A
1:30 AM48 °FPassing clouds.12 mph82%29.86 "HgN/A
1:00 AM48 °FPassing clouds.13 mph82%29.86 "HgN/A
12:30 AM48 °FPassing clouds.6 mph82%29.86 "HgN/A
12:00 AM48 °FPassing clouds.7 mph82%29.86 "HgN/A
11:30 PM
Apr 19
48 °FPassing clouds.7 mph82%29.86 "HgN/A
11:00 PM48 °FPassing clouds.7 mph82%29.86 "HgN/A
10:30 PM48 °FPassing clouds.7 mph87%29.86 "HgN/A
10:00 PM48 °FPassing clouds.9 mph82%29.86 "HgN/A
9:30 PM48 °FPassing clouds.8 mph82%29.86 "HgN/A
9:00 PM48 °FPassing clouds.9 mph82%29.86 "HgN/A
8:30 PM48 °FPassing clouds.7 mph82%29.86 "HgN/A
8:00 PM48 °FPartly sunny.7 mph82%29.86 "HgN/A
7:30 PM48 °FLight rain. Partly sunny.7 mph82%29.83 "HgN/A
7:00 PM48 °FLight rain. Partly sunny.10 mph82%29.83 "HgN/A
6:30 PM48 °FPartly sunny.9 mph82%29.83 "HgN/A
6:00 PM48 °FMostly cloudy.10 mph82%29.83 "HgN/A
5:30 PM48 °FMostly cloudy.12 mph76%29.83 "HgN/A
5:00 PM48 °FDrizzle. Mostly cloudy.14 mph82%29.83 "HgN/A
4:30 PM48 °FDrizzle. Mostly cloudy.14 mph82%29.83 "HgN/A
4:00 PM48 °FMostly cloudy.12 mph82%29.83 "HgN/A
3:30 PM48 °FMostly cloudy.16 mph82%29.80 "HgN/A
3:00 PM48 °FMostly cloudy.16 mph87%29.80 "HgN/A
2:30 PM50 °FMostly cloudy.16 mph82%29.80 "HgN/A
2:00 PM48 °FMostly cloudy.12 mph82%29.77 "HgN/A
12:30 PM48 °FMore clouds than sun.9 mph82%29.77 "HgN/A
11:30 AM46 °FBroken clouds.12 mph87%29.77 "HgN/A
11:00 AM48 °FLight rain. More clouds than sun.9 mph82%29.74 "HgN/A
10:30 AM46 °FLight rain. More clouds than sun.2 mph82%29.74 "HgN/A
10:00 AM46 °FMore clouds than sun.2 mph82%29.74 "HgN/A
9:30 AM45 °FMore clouds than sun.2 mph87%29.71 "HgN/A
9:00 AM43 °FLight rain. More clouds than sun.7 mph93%29.71 "HgN/A
Weather by CustomWeather, © 2014

See weather overview